Other Surface Observations
Issued by NWS

Home | Current Version | Previous Version | Text Only | Print | Product List | Glossary On
Versions: 1 2 3 4 5 6 7 8 9 10 11 12 13 14 15 16 17 18 19 20 21 22 23 24 25 26 27 28 29 30 31 32 33 34 35 36 37 38 39 40 41 42 43 44 45 46 47 48 49 50
000
SXUS52 KTAE 281218
OSOTAE
OSOTAE
North Florida/South Alabama/Southwest Georgia Weather Roundup
National Weather Service Tallahassee Florida
800 AM EDT FRI AUG 28 2015

Note: "fair" indicates few or no clouds below 12,000 feet with no
significant weather and/or obstructions to visibility.

!FLZ017-115-028-034-025-281300
...North Florida...

CITY           SKY/WX    TMP DP  RH WIND       PRES   REMARKS
TALLAHASSEE    PTCLDY    76  71  85 E6        29.99R
APALACHICOLA   CLEAR     71  68  90 NE5       29.97R
PERRY          MOSUNNY  N/A N/A N/A E5        30.01R
CROSS CITY       N/A     76  73  91 E5        30.00R
JACKSONVILLE   PTSUNNY   76  74  93 CALM      30.02R
$$

!FLZ112-006-005-002-011-281300
...Florida Panhandle...

CITY           SKY/WX    TMP DP  RH WIND       PRES   REMARKS
MARIANNA       CLEAR     71  69  93 NE3       30.00R
BONIFAY        PTSUNNY   69  67  93 CALM      30.01R
PANAMA CITY NW FAIR      69  66  90 CALM      29.98R
TYNDALL AFB    CLEAR     72  67  82 NE3       29.99R
TYND DRONE APT FAIR      71  68  90 NE3       29.99R
DE FUNIAK SPR  FAIR      69  65  85 NE8       30.00R
EGLIN AFB      PTCLDY    68  64  85 NE6       29.98R
DESTIN         PTCLDY    73  68  84 NE5       29.98R
HURLBURT       PTCLDY    68  65  89 N6        29.97R
CRESTVIEW      PTCLDY    66  64  93 CALM      30.00R
PENSACOLA      CLEAR     70  65  84 NE3       29.97R
$$

!ALZ063-066-281300
...South Alabama...

CITY           SKY/WX    TMP DP  RH WIND       PRES   REMARKS
DOTHAN         CLOUDY    73  69  87 E9        30.04R
OZARK CAIRNS   MOCLDY    71  69  95 NE6       30.01R
FT RUCKER HELI CLOUDY    72  68  87 NE5       30.00R
RUCKER HELI 3  MOCLDY    70  68  94 E5        30.03R
RUCKER HELI 2  NOT AVBL
FLORALA APT    MOCLDY    67  65  93 CALM      30.02R
ANDALUSIA      MOCLDY    72  67  84 E3        30.01R
TROY           PTCLDY    68  66  93 E3        30.03R
EUFALA         MOCLDY    74  71  91 N3        30.03R
MOBILE         PTCLDY    68  64  87 CALM      29.98R
$$

!GAZ120>161-281300
...Southwest and South Central Georgia...

CITY           SKY/WX    TMP DP  RH WIND       PRES   REMARKS
THOMASVILLE    FAIR      72  70  94 CALM      30.03R
BAINBRIDGE     CLEAR     72  68  88 E6        30.02R
MOODY AFB      MOSUNNY   72  70  94 E3        30.03R
VALDOSTA       CLOUDY    72  72 100 VRB3      30.03R
MOULTRIE       PTCLDY    72  70  94 CALM      30.04R
BLAKELY        CLOUDY    73  72  94 CALM      30.03R
ALBANY         PTCLDY    74  70  87 NE6       30.05R
TIFTON         CLOUDY    73  72  98 CALM      30.04R
FITZGERALD     PTSUNNY   75  73  96 E3        30.07R
CORDELE        FAIR      75  73  93 E5        30.06R
AMERICUS       CLOUDY    72  72 100 NE6       30.08R
HOMERVILLE     FAIR      73  73 100 CALM      30.04R
$$

!GMZ750-755-770-775-281300
...Coastal and Buoy Obs...

STATION/POSITION TIME  TEMP    WIND        PRES    VSBY  WAVE
                       AIR SEA DIR/SP/G                  HT/PER
                 (UTC) (F)     (DEG/KT/KT) (MB)    (MI)  (FT/S)
KEATON BEACH     1200   74      80/  8/  9 1015.9R
CEDAR KEY        1200   81     140/ 10/ 12 1016.1R
C TOWER          1200   83      CALM  /  2 1014.7R
APALACHICOLA BUO 1150   85 87  180/  8/ 10 1014.4R         1/ 4
PANAMA CITY BUOY 1150   84 85  140/  8/ 10 1014.6R         1/ 4
MOBILE BUOY      1150   80 84  180/  6/  8 1014.7R         0
ORANGE BCH AL BU 1150   82 85  180/  6/  6 1014.1R         0
$$



USA.gov is the U.S. government's official web portal to all federal, state and local government web resources and services.